Tracking 19969 objects as of 12-Nov-2019
Live streaming from Space Station
objects crossing your sky now
Track the group of recently launched Starlink satellites

COSMOS 951

Track COSMOS 951 now!
10-day predictions
COSMOS 951 is classified as:


NORAD ID: 10352
Int'l Code: 1977-087A
Perigee: 967.8 km
Apogee: 1,016.2 km
Inclination: 83.0 °
Period: 104.8 minutes
Semi major axis: 7362 km
RCS: 4.4489 m2 (large)
Launch date: September 13, 1977
Source: Commonwealth of Independent States (former USSR) (CIS)
Launch site: PLESETSK MISSILE AND SPACE COMPLEX (PKMTR)
aabbcc
Your satellite tracking list
Your tracking list is empty




NASA's NSSDC Master Catalog

Two Line Element Set (TLE):
1 10352U 77087A   19315.72120888  .00000029  00000-0  14929-4 0  9995
2 10352  82.9670 148.0486 0032850 248.9067 159.7088 13.74113985113847
Source of the keplerian elements: AFSPC